Overview Statistics Trail Chart Weather Telemetry Raw packets
 

This is the latest recevied weather packets stored in our database for station/object EA1GEC-10. If no packets are shown the sender has not sent any weather packets the latest 10 day(s).

<< 31 32 33 34 35 36 >>
Time Temp. Humidity Pressure Rain* Wind** Luminosity Snow
1777061377 17.78° C 58% 1026.8 hPa - - - -
1777060487 18.33° C 58% 1026.6 hPa - - - -
1777059587 18.33° C 57% 1026.3 hPa - - - -
1777058677 18.33° C 57% 1026.1 hPa - - - -
1777057777 18.33° C 56% 1025.8 hPa - - - -
1777056877 18.89° C 55% 1025.6 hPa - - - -
1777055977 18.89° C 54% 1025.4 hPa - - - -
1777055077 19.44° C 53% 1025.4 hPa - - - -
1777054177 20° C 53% 1025 hPa - - - -
1777053277 20° C 52% 1024.7 hPa - - - -
1777052376 20° C 52% 1024.6 hPa - - - -
1777051486 20° C 51% 1024.4 hPa - - - -
1777050586 20.56° C 50% 1024.2 hPa - - - -
1777049676 21.11° C 49% 1024 hPa - - - -
1777048776 21.11° C 50% 1024 hPa - - - -
1777047876 21.11° C 49% 1024 hPa - - - -
1777046976 21.11° C 48% 1023.9 hPa - - - -
1777046076 22.22° C 47% 1023.9 hPa - - - -
1777045176 21.67° C 47% 1023.9 hPa - - - -
1777044276 22.22° C 46% 1023.9 hPa - - - -
1777043376 22.22° C 46% 1024 hPa - - - -
1777041575 22.78° C 43% 1024 hPa - - - -
1777040675 23.33° C 42% 1024 hPa - - - -
1777039775 23.33° C 41% 1024.3 hPa - - - -
1777038875 24.44° C 37% 1024.1 hPa - - - -

* Rain since midnight (hover to see other rain measurements)
** Current wind speed in m/s (hover to see current wind gust speed)